Content
SEND FEEDBACK

Daily
Averages
Monthly
Summary
United States of America

ASATDAS, GUAM


Home > North America > United States > Guam
Elevation: 186 meters     Latitude: 13 35N     Longitude: 144 56E

WEATHER
 
SELECT A DAY
Number of Records: 213,899;   Date Range: 1/1/95 - 10/23/14
 
SHARE

PRINT THIS DATA

[ ← Previous Day ]
WEATHER ALMANAC - 21 MARCH, 2014
[ Next Day → ]
[ °F ]   °C
Weather ElementAverageHighLow
Temperature27.4 °C30 °C (2:54 pm)25 °C (4:54 am)
Dewpoint22.3 °C23.3 °C (5:54 am)21.1 °C (9:54 am)
Humidity74 %87 % (5:54 am)61 % (2:54 pm)
Barometer1009.5 hPa1011.5 hPa (10:54 pm)1007.8 hPa (2:54 pm)
Wind Speed17.9 km/h27.8 km/h (8:54 am)
Wind Gust38.9 km/h (8:54 am)
Weather ElementAverage
Visibility16.1 km
Wind DirectionENE (79.6 °)

Weather ElementTotal
Precipitation0.25 mm
Cooling Degree Days9.2 (Base 18.3)
Growing Degree Days17.5 (Base 10)
Averaged from 23 records on 21 March, 2014
WEATHER CONDITIONS BREAKOUT
WIND DIRECTION BREAKOUT
WEATHER BY HOUR - 21 MARCH, 2014
[ °F ]   °C
Local TimeTemperatureDewpointHumidityBarometerVisibilityWind DirectionWind SpeedGust SpeedPrecipitationEventsConditions
1:54 AM26.1 °C22.2 °C79 %1009.5 hPa16.1 kmEast (90°)13 km/hPartly Cloudy
2:54 AM26.1 °C22.2 °C79 %1009.1 hPa16.1 kmENE (60°)14.8 km/hClear
3:54 AM25.6 °C22.8 °C84 %1009.1 hPa16.1 kmENE (60°)16.7 km/h0 mmRainLight Rain
4:54 AM25 °C22.2 °C84 %1008.5 hPa16.1 kmEast (80°)14.8 km/h0.25 mmScattered Clouds
5:54 AM25.6 °C23.3 °C87 %1009.1 hPa16.1 kmEast (80°)18.5 km/hPartly Cloudy
6:54 AM26.1 °C22.2 °C79 %1009.5 hPa16.1 kmEast (80°)18.5 km/hClear
7:54 AM26.7 °C22.2 °C76 %1009.8 hPa16.1 kmEast (80°)18.5 km/hScattered Clouds
8:54 AM27.2 °C22.8 °C77 %1010.5 hPa16.1 kmEast (90°)27.8 km/h38.9 km/hPartly Cloudy
9:54 AM28.3 °C21.1 °C65 %1010.2 hPa16.1 kmEast (80°)24.1 km/hMostly Cloudy
10:54 AM28.9 °C23.3 °C72 %1009.8 hPa16.1 kmEast (100°)20.4 km/h38.9 km/hMostly Cloudy
11:54 AM29.4 °C22.2 °C65 %1008.8 hPa16.1 kmEast (90°)27.8 km/h37 km/hClear
12:54 PM29.4 °C22.2 °C65 %1008.1 hPa16.1 kmENE (70°)25.9 km/h33.3 km/hClear
1:54 PM29.4 °C21.7 °C63 %1008.1 hPa16.1 kmEast (100°)22.2 km/h31.5 km/hPartly Cloudy
2:54 PM30 °C21.7 °C61 %1007.8 hPa16.1 kmEast (90°)20.4 km/h27.8 km/hPartly Cloudy
3:54 PM29.4 °C21.1 °C61 %1008.1 hPa16.1 kmEast (80°)20.4 km/h31.5 km/hPartly Cloudy
4:54 PM28.9 °C21.7 °C65 %1008.5 hPa16.1 kmENE (70°)20.4 km/hScattered Clouds
5:54 PM27.8 °C22.2 °C71 %1008.8 hPa16.1 kmEast (80°)18.5 km/hPartly Cloudy
6:54 PM27.8 °C22.2 °C71 %1009.5 hPa16.1 kmEast (80°)11.1 km/h0 mmRainLight Rain
7:54 PM26.7 °C22.2 °C76 %1010.2 hPa16.1 kmEast (90°)9.3 km/h0 mmScattered Clouds
8:54 PM26.7 °C22.8 °C79 %1011.2 hPa16.1 kmEast (80°)14.8 km/hMostly Cloudy
9:54 PM27.2 °C23.3 °C79 %1011.2 hPa16.1 kmEast (80°)13 km/hScattered Clouds
10:54 PM26.7 °C23.3 °C81 %1011.5 hPa16.1 kmEast (80°)9.3 km/hOvercast
11:54 PM26.1 °C22.8 °C82 %1011.2 hPa16.1 kmNE (40°)9.3 km/hOvercast
Hourly data recorded from PGUM, located 0 kilometers away from Asatdas, Guam







STORIES FROM OUR PARTNERS